KZ1X Weather Reports


Display with metric or nautical units.
time (UTC)temp
F
wind
direction
speed
MPH
gust
MPH
rain 1hr
in
rain 24hr
in
rain mn
in
humidity
%
barometer
mb
20260504081544 43 0 0.0 0.0 0.00 0.00 0.00 85 1016.9
20260504044540 43 0 0.0 0.0 0.00 0.00 0.00 79 1017.6
20260504043049 43 0 0.0 0.0 0.00 0.00 0.00 81 1017.6
20260504041537 43 0 0.0 0.0 0.00 0.00 0.00 80 1017.7
20260504040036 44 0 0.0 0.0 0.00 0.00 0.00 80 1017.6
20260504034546 44 0 0.0 0.0 0.00 0.00 0.00 79 1017.7
20260504033040 45 0 0.0 0.0 0.00 0.00 0.00 79 1017.7
20260504031547 45 0 0.0 0.0 0.00 0.00 0.00 78 1017.5
20260504030050 45 0 0.0 0.0 0.00 0.00 0.00 75 1017.4
20260504024543 46 0 0.0 0.0 0.00 0.00 0.00 76 1017.4
20260504023042 46 0 0.0 0.0 0.00 0.00 0.00 75 1017.1
20260504021544 47 0 0.0 0.0 0.00 0.00 0.00 74 1017.1
20260504020038 47 0 0.0 0.0 0.00 0.00 0.00 73 1017.1
20260504014537 48 0 0.0 0.0 0.00 0.00 0.00 71 1017.1
20260504013038 49 0 0.0 0.0 0.00 0.00 0.00 69 1017.1
20260504011541 50 0 0.0 0.0 0.00 0.00 0.00 67 1017.1
20260504010052 51 0 0.0 0.0 0.00 0.00 0.00 65 1016.6
20260504004545 52 0 0.0 0.0 0.00 0.00 0.00 60 1016.5
20260504003037 54 0 0.0 0.0 0.00 0.00 0.00 57 1016.6
20260504001539 55 0 0.0 0.0 0.00 0.00 0.00 53 1016.4
20260504000037 56 0 0.0 0.0 0.00 0.00 0.00 48 1016.3
20260503234540 58 0 0.0 0.0 0.00 0.00 0.00 44 1016.1
20260503233040 59 0 0.0 0.0 0.00 0.00 0.00 42 1016.2
20260503231541 61 0 0.0 0.0 0.00 0.00 0.00 39 1016.0
20260503230053 61 0 0.0 1.0 0.00 0.00 0.00 42 1016.2
20260503224537 62 0 0.0 1.0 0.00 0.00 0.00 37 1016.1
20260503223036 63 0 0.0 3.0 0.00 0.00 0.00 36 1016.2
20260503221549 64 127 0.0 5.0 0.00 0.00 0.00 39 1016.2
20260503220042 64 137 0.0 3.0 0.00 0.00 0.00 37 1016.2
20260503214552 64 125 1.0 4.0 0.00 0.00 0.00 35 1016.3
20260503213040 65 158 2.0 5.0 0.00 0.00 0.00 34 1016.4
20260503211537 65 75 0.0 2.0 0.00 0.00 0.00 37 1016.4
20260503210035 65 0 0.0 3.0 0.00 0.00 0.00 34 1016.4
20260503204542 66 102 1.0 5.0 0.00 0.00 0.00 37 1016.4
20260503203046 67 86 0.0 3.0 0.00 0.00 0.00 34 1016.7
20260503201544 67 251 0.0 4.0 0.00 0.00 0.00 34 1016.8
20260503200038 67 100 1.0 5.0 0.00 0.00 0.00 33 1017.1
20260503194546 66 106 1.0 5.0 0.00 0.00 0.00 33 1017.3
20260503193037 66 139 1.0 6.0 0.00 0.00 0.00 36 1017.5
20260503191536 66 50 1.0 7.0 0.00 0.00 0.00 36 1017.5
20260503190045 65 72 2.0 8.0 0.00 0.00 0.00 36 1017.7
20260503184543 66 0 1.0 7.0 0.00 0.00 0.00 33 1018.0
20260503183042 65 0 1.0 4.0 0.00 0.00 0.00 36 1018.2
20260503181556 64 145 2.0 8.0 0.00 0.00 0.00 36 1018.3
20260503180047 64 111 0.0 6.0 0.00 0.00 0.00 38 1018.3
20260503174536 63 169 3.0 8.0 0.00 0.00 0.00 37 1018.4
20260503173042 63 134 1.0 3.0 0.00 0.00 0.00 37 1018.5
20260503171541 62 104 2.0 9.0 0.00 0.00 0.00 37 1018.9